Location: Unspecified
(0.0000°N, 0.0000°E)
Time: 05:24:37
(UTC+00:00)

Transit 2A - Pass Details

Date: 08 October 2020
Orbit: 593 x 966 km, 66.7° (Epoch: 28 October)

Event Time Altitude Azimuth Distance (km) Brightness Sun altitude
Rises 16:44:56 0° 324° (NW) 3,146 9.6 15.5°
Reaches altitude 10° 16:47:35 10° 315° (NW) 2,164 9.0 14.9°
Maximum altitude 16:51:56 33° 252° (WSW) 1,118 8.5 13.8°
Drops below altitude 10° 16:55:58 10° 187° (S) 2,003 8.4 12.8°
Sets 16:58:20 0° 177° (S) 2,876 9.0 12.2°
